Find Starlink 11571

NORAD ID: 62986 Int'l Des: 2025-031 Owner: SPXS Country: US Constellation: starlink operational
LEOCIRCULAR

实时位置

正在加载3D地球...

关于 Starlink 11571

正在加载描述...

即将过境

Passes for default location (London). Set your location on the main map for personalized predictions.

高度历史

Loading altitude history...

两行轨道根数

1 62986U 25031F 26125.95629073 .00032762 00000-0 25799-3 0 9994
2 62986 43.0014 15.8602 0002486 290.0634 69.9966 15.70821096 71755
Epoch: May 5, 2026 • Age: 4 hours

当前状态

高度 367.6 km
速度 7.69 km/s
星下点 -41.07°S, 7.06°W
发射日期 Feb 11, 2025
运行时间 1.2 years
类型 internet

技术详情

分类 Payload
质量 960.00 kg
干质量 910.00 kg
总质量 960.00 kg
长度 0.30 m
直径 4.10 m
跨度 29.00 m
形状 Box + pan
制造商 SPXS
平台类型 Starlink V2MD
阶段状态 In Orbit
所有者/国家 SPXS/US

Most Searched